sat.trackr.live / text

‹ back to catalog

STARLINK-32414

NORAD 61667 · 2024-193G

PAYLOAD ACTIVE UNKNOWN

§ Identity

Operator
Country
US
Launch date
2024-10-26
Launch site
AFETR
Launch vehicle
Mass (kg)
RCS (m²)

Purposes: comms

External: N2YO · Heavens-Above · Gunter

§ Orbital elements

Epoch: 2026-09-21T06:59:24.232416Z

Period
93.85 min
Inclination
53.1619°
Eccentricity
0.0001388
Mean motion
15.34395727 rev/d
Perigee alt
461.8 km
Apogee alt
463.7 km
Semi-major
6,840.9 km
B*
3.4266e-5
RAAN
261.7848°
Arg perigee
80.5871°
Mean anomaly
279.5288°
Rev number
10,648

§ Raw data

STARLINK-324141 61667U 24193G   26264.29125269  .00000781  00000+0  34266-4 0  99912 61667  53.1619 261.7848 0001388  80.5871 279.5288 15.34395727106484

JSON: /api/v1/satellites/61667 · /tle

For live sub-satellite position, see the globe view (requires WebGL).

§ Visibility from observer

Set your observer location to see the next 7 days of passes ≥ 10°. The values pass through the URL so the page stays shareable.

No JS? Fill the form by hand. The geolocation button needs JavaScript.